Вернуться в каталог

STARLINK-30985

АктивенСвязьVLEO
NORAD 58493·PAYLOAD·🇺🇸 United States

Запущен Dec 3, 2023 с Cape Canaveral Space Force Station

Loading…

Ближайшие Пролёты (ближайшие 24 часа)

TLE

СвежийSource: CelesTrak SupGP

Эпоха: Sep 15, 2026, 01:58 UTC

1 58493C 23186W   26258.08243056 -.00024936  00000+0 -90291-3 0  2587
2 58493  43.0037  73.8298 0001882 270.1353 103.0379 15.27600535    13

Отслеживайте STARLINK-30985 в реальном времени с AllMySat

Download on the App Store